Weatherford, Texas, United States (76085)
Lat: 32.76N, Lon: 97.8W
Wx Zone: TXZ117
Local Info
Past Weather Observations for Yesterday

NOTE: This archive is for the closest National Weather Service station to Weatherford. Information may differ from the station used for current weather conditions.

Click here for Long-term Archive

Time Weather Temperature Dewpoint Humidity Pressure Winds Precip Visibility
23:53
Mostly Cloudy
75°F / 24°C 68°F / 20°C 78% 30.12 in
(1020 mb)
ESE 4.6 mph
(ESE 7 kph)
- 7SM
22:53
Overcast
75°F / 24°C 66°F / 19°C 74% 30.12 in
(1020 mb)
Calm - 8SM
21:53
Partly Cloudy
75°F / 24°C 66°F / 19°C 74% 30.12 in
(1020 mb)
Calm - 7SM
20:53
Overcast
77°F / 25°C 66°F / 19°C 69% 30.12 in
(1020 mb)
E 3.5 mph
(E 6 kph)
- 8SM
19:53
Mostly Cloudy
79°F / 26°C 66°F / 19°C 65% 30.09 in
(1019 mb)
SE 4.6 mph
(SE 7 kph)
- 9SM
18:53
Partly Cloudy
81°F / 27°C 66°F / 19°C 62% 30.09 in
(1019 mb)
E 6.9 mph
(E 11 kph)
- 10SM
17:53
Mostly Cloudy
82°F / 28°C 66°F / 19°C 58% 30.09 in
(1019 mb)
SE 8.1 mph
(SE 13 kph)
- 10SM
16:53
Partly Cloudy
84°F / 29°C 64°F / 18°C 51% 30.09 in
(1019 mb)
SE 8.1 mph
(SE 13 kph)
- 10SM
15:53
Overcast
84°F / 29°C 64°F / 18°C 51% 30.09 in
(1019 mb)
ESE 3.5 mph
(ESE 6 kph)
- 9SM
14:53
Partly Cloudy
84°F / 29°C 64°F / 18°C 51% 30.09 in
(1019 mb)
S 5.8 mph
(S 9 kph)
0.00 in
(0.00 mm)
8SM
13:53
Partly Cloudy
Light Rain
82°F / 28°C 66°F / 19°C 58% 30.09 in
(1019 mb)
ESE 4.6 mph
(ESE 7 kph)
0.00 in
(0.00 mm)
6SM
12:53
Partly Cloudy
82°F / 28°C 66°F / 19°C 58% 30.12 in
(1020 mb)
SW 9.2 mph
(SW 15 kph)
- 7SM
11:53
Partly Cloudy
81°F / 27°C 66°F / 19°C 62% 30.15 in
(1021 mb)
SE 9.2 mph
(SE 15 kph)
- 7SM
10:53
Clear
Hazy
79°F / 26°C 66°F / 19°C 65% 30.15 in
(1021 mb)
SSE 6.9 mph
(SSE 11 kph)
- 6SM
09:53
Clear
Hazy
77°F / 25°C 66°F / 19°C 69% 30.15 in
(1021 mb)
SSE 9.2 mph
(SSE 15 kph)
- 6SM
08:53
Clear
Hazy
75°F / 24°C 66°F / 19°C 74% 30.15 in
(1021 mb)
S 6.9 mph
(S 11 kph)
- 6SM
07:53
Clear
Fog And Mist
70°F / 21°C 66°F / 19°C 88% 30.15 in
(1021 mb)
SE 4.6 mph
(SE 7 kph)
- 6SM
06:53
Clear
Fog And Mist
70°F / 21°C 66°F / 19°C 88% 30.15 in
(1021 mb)
SE 4.6 mph
(SE 7 kph)
0.00 in
(0.00 mm)
6SM
05:53
Clear
68°F / 20°C 64°F / 18°C 88% 30.12 in
(1020 mb)
Calm - 8SM
04:53
Clear
68°F / 20°C 64°F / 18°C 88% 30.12 in
(1020 mb)
Calm - 8SM
03:53
Partly Cloudy
68°F / 20°C 64°F / 18°C 88% 30.12 in
(1020 mb)
SE 3.5 mph
(SE 6 kph)
0.00 in
(0.00 mm)
10SM
02:53
Mostly Cloudy
Light Rain
70°F / 21°C 64°F / 18°C 83% 30.12 in
(1020 mb)
ESE 4.6 mph
(ESE 7 kph)
0.01 in
(0.25 mm)
5SM
01:53
Partly Cloudy
70°F / 21°C 63°F / 17°C 78% 30.12 in
(1020 mb)
SSE 3.5 mph
(SSE 6 kph)
- 10SM
00:53
Clear
72°F / 22°C 63°F / 17°C 73% 30.12 in
(1020 mb)
S 8.1 mph
(S 13 kph)
- 10SM
Time Weather Temperature Dewpoint Humidity Pressure Winds Precip Visibility


Weather for websites

WeatherForYou.com, LLC is not responsible for any damages or problems caused by this service. Current weather conditions are obtained from the closest station including government and personal stations which may have varying degrees of accuracy. Weather forecasts are derived from the NOAA NDFD. Like all things, this site belongs to Jesus Christ... He just trusts me to maintain it. If you have any questions or comments email webmaster@weatherforyou.com

Copyright © 2014, WeatherForYou.com LLC. All rights reserved.